Flag for Germany Weather past 2 weeks in Arnstadt, Thuringia, Germany

Now
56 °F

Partly sunny.


Feels Like: 54 °F
Forecast: 49 / 67 °F
Wind: 9 mph from West

Location: Erfurt-Bindersleben

Current Time: Jul 30, 2015 at 9:19:15 AM

Latest Report: Jul 30, 2015 at 9:00 AM


Visibility: 31 mi

Pressure: 29.93 "Hg

Humidity: 69%

Dew point: 46 °F

Location of ArnstadtLocation

Historic Weather in Arnstadt — Graph

°F

Arnstadt temperature yesterday

Maximum temperature yesterday: 66 °F (at 3:00 PM)
Minimum temperature yesterday: 52 °F (at 6:00 AM)
Average temperature yesterday: 59 °F

Past Weeks' High & Low Weather Summary

 TemperatureHumidityPressure
High91 °F (Jul 17, 6:00 PM)100% (Jul 19, 7:00 AM)30.12 "Hg (Jul 19, 7:00 AM)
Low49 °F (Jul 30, 5:00 AM)26% (Jul 17, 4:00 PM)29.60 "Hg (Jul 25, 6:00 AM)
Average68 °F67%29.88 "Hg
* Reported Jul 15 8:00 AM — Jul 30 8:00 AM, Arnstadt, Weather by CustomWeather, © 2015

Note: Actual official high and low records may vary slightly from our data, if they occured in-between our weather recording intervals... More about our weather records

Advertising

Arnstadt weather history for previous 24 hours

 ConditionsComfort  
Time TempWeatherWind HumidityBarometerVisibility
8:00 AM
Thu, Jul 30
54 °FPassing clouds.8 mph74%29.92 "Hg31 mi
7:00 AM51 °FPassing clouds.7 mph78%29.92 "Hg37 mi
5:00 AM49 °FPassing clouds.6 mph78%29.91 "Hg37 mi
4:00 AM50 °FClear.6 mph76%29.91 "Hg37 mi
3:00 AM52 °FClear.7 mph73%29.90 "Hg37 mi
2:00 AM53 °FClear.8 mph71%29.88 "Hg37 mi
1:00 AM53 °FPassing clouds.6 mph73%29.88 "Hg37 mi
12:00 AM54 °FPassing clouds.7 mph66%29.87 "Hg37 mi
11:00 PM
Wed, Jul 29
55 °FPassing clouds.6 mph62%29.86 "Hg47 mi
10:00 PM56 °FPassing clouds.5 mph57%29.85 "Hg47 mi
9:00 PM59 °FScattered clouds.9 mph49%29.80 "Hg47 mi
8:00 PM62 °FPassing clouds.8 mph50%29.78 "Hg47 mi
7:00 PM63 °FPassing clouds.7 mph51%29.77 "Hg37 mi
6:00 PM63 °FPassing clouds.7 mph50%29.77 "Hg37 mi
5:00 PM62 °FSprinkles. Overcast.8 mph64%29.75 "Hg25 mi
4:00 PM63 °FSprinkles. Overcast.9 mph51%29.72 "Hg31 mi
3:00 PM66 °FPartly sunny.8 mph46%29.71 "Hg47 mi
2:00 PM63 °FPartly sunny.9 mph48%29.73 "Hg47 mi
1:00 PM62 °FPartly sunny.9 mph46%29.73 "Hg47 mi
12:00 PM62 °FScattered clouds.8 mph56%29.75 "Hg47 mi
11:00 AM60 °FPartly sunny.8 mph57%29.77 "Hg47 mi
10:00 AM56 °FPartly sunny.7 mph69%29.79 "Hg43 mi
9:00 AM55 °FPartly sunny.6 mph83%29.80 "Hg9 mi
Weather by CustomWeather, © 2015

See weather overviewHow to use our weather pages